Zurück zum Katalog

NOAA 17 DEB

AktivPO
NORAD 48723·DEBRIS·🇺🇸 United States

Gestartet Jun 24, 2002 von Vandenberg Space Force Base

Loading…

Nächste Überflüge (nächste 24 Stunden)

TLE

AktuellSource: Space-Track

Epoche: Sep 13, 2026, 10:48 UTC

1 48723U 02032BG  26256.45058154  .00004298  00000-0  10853-2 0  9996
2 48723  98.8199 253.4429 0020033 341.5447  18.5017 14.51465057287260

Verfolge NOAA 17 DEB in Echtzeit mit AllMySat

Download on the App Store